Fort Stockton Pecos County Airport
KFST : now visible

Airfield :











YOU CAN JOIN US ON...

 
LOGIN :

Register | Disclaimer

   EN    FR    IT 

 









Legend :    VFR   Marginal VFR   IFR   Intensive IFR   Very Intensive IFR
Visi :
Ceiling :
>= 8 km
>= 3000ft
5 to 8 km
1000 to 3000 ft
1500m to 5 km
500 to 1000 ft
800 to 1500m
200 to 500 ft
< 800m
< 200 ft
Symbols :   Thunderstorms  Fog  Heavy snow  Heavy precipitations  Wind > 20 kt






- Airport Elevation : 3011 ft


KFST - Fort Stockton Pecos County

CURRENT METAR :
  • 212053Z AUTO 09012G18KT 10SM CLR 16/M01 A3009 RMK AO2 SLP168 T01561011 56042

EXPIRED METARs :
  • 211953Z AUTO 10011G17KT 10SM CLR 15/M01 A3013 RMK AO2 SLP182 T01501011
  • 211853Z AUTO 12010G19KT 10SM CLR 13/M02 A3018 RMK AO2 SLP200 T01281022

TAF KFST
Valid from the 21 at 18:00 until the 22 at 18:00 UTC


211720Z 2118/2218 12015G23KT P6SM BKN250
FM220200 12014KT P6SM SCT250
KZAB FIR / North America



MET'MAP, your aeronautical weather chart ! - Copyright ORBIFLY December 2007 - Disclaimer

ORBIFLY MET'MAP TEAM :

Programming & Development : Alexandra Zaïnal
Concept & original design : Baudouin d'Aumeries
Assistance for programming : Marc-Olivier Méhu
Technical & hardware support : Manuel Goepfert

Contact : metmap@orbifly.com




SOURCES & CREDITS :

   NOAA       Earth
Advisory